RH
14 17 17 16 15 15 14 16 19 20 21 20 17 19 23 22 17 13 10 7 8 8 9 9 9 10 10 10 10 10 9 8 7 6 6 6 6 7 8 10 12 12
12 15 16 15 15 15 15 15 16 18 19 18 17 18 21 18 14 11 9 6 6 8 10 9 8 9 10 10 10 9 8 7 7 6 6 6 7 7 9 10 11 12
10 12 14 15 15 15 15 15 15 15 16 16 17 17 17 15 12 10 8 7 7 8 8 8 8 9 10 10 10 8 8 8 7 6 6 6 7 7 8 10 10 11
9 10 12 13 13 13 14 14 14 13 14 16 16 16 14 13 11 9 8 7 7 7 7 8 7 8 10 10 9 8 7 8 7 7 6 6 8 7 8 9 10 10
9 9 10 11 12 13 13 14 14 13 13 15 15 14 13 11 10 9 8 7 7 7 6 7 7 7 9 9 9 8 7 8 7 7 6 6 7 7 8 8 9 10
8 8 9 9 10 12 13 13 13 12 13 13 13 13 11 10 9 8 8 7 6 7 6 6 6 7 8 9 9 8 7 8 7 7 7 6 7 7 8 9 9 10
7 7 7 8 9 11 12 13 12 11 12 12 12 11 10 9 9 8 8 7 6 6 6 6 6 6 7 7 7 8 7 8 8 8 8 7 7 7 7 9 9 10
7 6 6 7 7 9 11 12 12 11 11 10 10 10 9 8 8 8 7 7 6 6 6 6 6 5 6 6 6 7 8 9 10 10 10 8 8 9 8 9 9 9
7 6 6 7 6 8 9 10 12 11 10 10 9 9 9 8 8 7 7 7 6 6 5 5 6 5 6 6 6 7 8 10 13 14 14 14 13 14 14 14 15 15
6 6 5 7 6 6 8 9 11 11 10 10 8 8 8 7 7 6 6 6 6 6 5 5 6 5 5 5 6 7 9 12 16 18 18 19 20 21 21 21 21 21
6 6 5 6 6 6 7 7 9 10 10 10 8 8 8 7 7 6 6 6 6 6 5 5 6 5 5 5 5 7 10 14 18 20 21 21 21 22 22 22 22 22
5 5 5 6 5 6 6 6 8 8 9 10 9 8 7 7 7 6 6 6 5 5 5 5 5 5 5 5 5 7 11 16 20 20 21 21 22 22 22 22 22 23
6 5 5 6 5 6 6 5 7 7 8 9 9 8 7 7 7 6 6 6 5 5 5 5 5 5 5 5 5 7 12 17 21 21 21 21 22 22 22 22 23 23
7 5 5 5 5 5 6 6 6 6 7 8 9 8 8 7 7 6 5 5 5 5 5 5 5 5 5 5 6 8 12 18 21 22 22 22 22 23 23 23 24 24
8 7 5 5 5 5 5 5 5 6 7 7 8 8 8 7 6 6 5 5 5 5 5 5 6 5 5 5 6 8 12 17 21 22 23 24 23 23 23 23 24 25
7 9 7 5 5 5 5 5 5 6 6 6 8 8 8 8 7 6 5 5 5 6 5 6 6 6 6 5 5 7 11 16 20 22 23 24 24 24 24 24 24 25
10 8 9 9 7 5 5 5 5 5 6 6 7 7 8 8 7 7 6 5 5 5 5 6 6 7 7 6 6 6 9 14 18 21 22 23 24 24 24 23 23 24
19 10 8 9 9 8 6 5 5 5 5 6 6 6 7 7 7 7 6 6 5 5 5 6 6 7 7 6 7 6 7 10 15 18 20 21 23 24 24 23 22 22
38 22 11 7 8 9 8 6 5 5 5 5 5 6 6 6 7 7 7 6 6 5 5 6 6 7 7 7 7 7 7 7 10 13 16 18 20 22 23 23 21 20
56 40 24 13 7 7 8 7 6 5 5 5 5 5 5 5 6 6 6 7 6 6 6 6 6 6 6 7 7 7 7 7 7 9 11 12 15 18 21 22 20 18
69 59 45 29 14 6 6 7 7 7 6 5 5 5 5 5 5 6 6 6 6 6 6 6 6 7 6 6 7 7 7 7 6 7 7 8 10 12 16 18 18 16
78 72 64 51 34 18 9 5 6 7 7 6 6 5 5 5 5 5 5 5 5 5 6 6 6 6 6 7 7 7 7 6 7 7 6 6 7 8 10 12 13 13
85 80 77 69 56 41 27 14 7 5 7 7 7 6 6 5 5 5 5 5 5 5 5 5 5 5 5 6 6 6 6 6 6 6 6 6 6 6 6 7 9 10
90 84 82 78 70 62 52 36 19 8 5 6 7 7 7 6 6 5 5 4 5 5 5 5 5 5 5 5 5 5 5 5 6 5 6 6 6 6 6 6 7 8
95 90 84 80 76 73 67 56 38 20 9 5 5 6 7 8 7 6 6 5 5 5 5 5 5 5 5 5 5 5 4 4 5 5 5 6 6 6 6 6 6 6
92 92 89 84 80 75 71 66 55 36 18 9 6 5 5 7 8 7 7 7 6 6 5 5 5 5 5 5 4 5 5 4 4 5 5 5 6 6 6 6 7 7
Wind_Speed
15 15 15 14 13 13 13 14 15 15 13 11 10 10 11 11 12 12 12 13 13 13 13 12 12 12 12 12 11 10 9 9 9 9 9 9 10 11 12 13 13 13
17 17 16 14 14 14 14 15 16 16 14 12 10 11 12 13 12 12 13 13 13 13 13 13 13 13 13 13 12 11 10 10 10 10 10 10 10 11 12 13 13 13
18 18 18 16 15 15 15 15 16 16 15 13 13 13 14 13 13 13 13 13 14 14 14 14 14 14 13 13 12 12 11 11 10 10 11 11 11 11 12 13 13 13
20 21 20 18 16 16 16 15 16 16 16 16 16 15 15 14 13 13 14 14 14 14 14 14 14 14 14 13 13 12 11 11 11 11 11 12 12 12 12 12 13 13
22 22 22 19 17 16 16 16 16 17 18 18 18 17 16 15 14 14 15 15 15 14 15 15 14 14 14 14 13 12 12 12 12 12 12 12 13 12 12 12 12 13
24 24 23 21 19 18 17 17 17 18 19 19 19 18 17 16 15 15 16 15 15 15 15 15 15 15 14 15 14 13 13 12 12 12 12 12 13 12 12 11 11 11
25 25 25 23 21 20 19 19 18 18 19 20 20 19 18 17 17 17 16 16 15 15 15 15 15 15 15 15 15 14 14 13 12 12 12 12 12 11 11 10 10 10
27 26 25 24 23 22 21 20 19 19 20 20 20 20 20 19 18 18 17 17 16 15 15 15 16 16 16 16 16 15 14 13 13 12 12 12 11 11 10 10 9 9
29 27 26 25 24 23 23 22 22 21 20 21 21 22 21 20 19 19 18 17 16 15 15 15 16 17 17 17 16 16 15 14 13 12 12 12 11 11 11 10 9 9
30 29 28 27 26 25 25 25 24 23 22 21 22 22 21 21 20 19 19 18 16 15 15 15 16 17 18 17 17 16 15 14 13 13 12 12 11 11 11 10 10 9
32 31 29 29 28 27 27 27 26 25 24 23 22 22 22 22 21 20 20 19 18 16 15 15 16 18 18 18 18 17 16 15 14 13 12 12 12 11 11 10 9 9
33 32 31 31 30 30 29 29 28 27 26 25 24 24 23 23 22 21 21 20 19 17 16 15 16 17 19 19 18 17 17 16 15 14 13 13 13 12 11 10 9 9
34 33 33 33 33 32 32 31 30 29 28 27 26 26 25 24 24 23 23 22 21 19 17 15 15 16 18 19 18 18 18 17 16 15 14 13 13 13 11 10 10 9
36 36 35 35 35 34 33 32 31 31 30 29 28 27 26 26 26 25 25 25 23 21 19 17 15 14 16 18 19 19 19 18 17 16 15 14 14 13 12 11 11 10
38 38 37 37 36 35 34 33 33 32 32 32 30 29 28 28 28 27 27 26 25 24 21 19 16 15 15 17 18 20 20 20 19 18 17 16 15 14 13 12 12 12
35 38 39 38 37 37 36 35 34 34 33 33 32 31 31 30 29 29 28 28 27 26 24 21 19 18 17 17 18 20 21 21 20 19 18 17 16 15 15 14 14 14
31 34 38 39 39 38 38 37 36 35 35 34 33 33 32 31 30 29 29 28 28 28 26 24 22 21 20 19 19 20 21 22 22 22 21 20 18 18 17 17 17 16
29 31 34 37 39 40 39 39 38 37 36 35 34 33 33 32 31 30 30 29 29 29 28 26 25 24 24 22 22 22 22 23 24 24 23 23 22 21 21 20 20 19
31 30 31 34 37 40 41 41 40 39 38 37 36 35 35 34 32 31 31 30 30 30 29 28 28 27 27 26 25 24 24 24 25 25 25 25 25 24 24 23 22 22
34 32 31 31 34 37 41 42 41 40 39 39 38 37 36 35 34 33 32 32 31 31 30 30 30 30 29 29 28 27 26 26 26 26 26 26 26 27 27 26 26 25
36 34 32 31 32 34 37 40 41 41 41 41 40 39 38 37 36 35 34 33 33 32 31 31 30 30 31 30 30 29 29 28 27 26 26 26 26 27 28 29 29 28
39 37 34 33 32 32 32 35 37 40 41 42 42 41 40 39 38 36 35 35 34 33 32 31 31 31 32 32 31 31 31 30 29 27 26 26 26 27 28 30 30 30
42 40 37 36 34 32 31 32 33 36 39 41 42 42 41 40 39 38 38 37 36 35 33 32 32 32 33 33 33 33 32 31 30 29 28 26 26 27 28 29 30 30
44 42 40 39 37 35 33 32 33 34 36 39 41 42 42 42 41 41 40 39 38 36 34 33 33 34 34 34 33 34 33 32 31 30 28 27 27 27 28 28 29 30
45 44 43 42 40 39 37 35 34 35 35 36 38 40 42 43 43 42 41 40 38 37 36 35 34 35 35 35 35 35 34 33 32 31 29 28 28 28 29 30 29 30
46 46 45 44 43 42 41 38 37 36 36 36 36 38 39 42 43 42 41 40 38 37 37 36 35 36 37 37 36 36 35 34 34 32 30 30 30 30 31 31 30 30
Wind_Direction
195 200 199 188 183 185 188 192 195 194 195 199 202 201 202 206 209 210 208 202 196 193 191 189 189 186 185 188 188 184 177 170 163 159 159 160 158 155 154 154 155 155
199 204 206 196 188 186 190 196 198 197 196 195 194 196 202 208 212 212 209 202 197 194 192 190 189 187 186 189 190 187 182 175 169 167 165 165 164 162 160 159 160 161
202 206 210 204 195 190 190 195 200 199 197 191 188 193 202 209 213 213 209 202 197 194 192 191 190 189 190 194 194 190 185 179 175 172 169 168 169 168 166 166 165 165
204 207 211 209 201 194 190 194 199 200 196 190 188 193 200 206 212 213 209 204 199 196 194 194 193 192 194 198 198 195 189 184 180 177 174 172 172 172 172 172 171 171
205 208 210 209 203 197 193 194 198 199 197 192 191 195 199 204 210 212 209 204 202 200 198 198 197 197 198 201 203 201 195 190 187 184 181 177 176 175 176 175 175 176
206 209 210 208 204 200 197 196 197 198 197 195 194 197 200 202 207 210 208 205 204 205 203 202 202 201 202 204 206 205 201 197 194 191 188 184 181 179 178 178 178 179
208 210 211 208 205 203 200 199 198 198 199 198 198 199 200 201 204 206 206 205 206 209 208 208 207 205 204 206 207 207 205 201 198 195 192 189 185 182 182 183 183 183
209 211 213 211 207 205 204 201 200 200 200 199 200 201 202 202 202 202 203 204 207 211 213 213 213 211 208 208 208 208 206 203 200 196 193 190 187 185 186 188 189 189
209 210 212 212 210 207 207 205 203 202 201 201 202 203 203 202 201 199 200 202 205 210 215 217 218 216 214 212 211 209 207 204 201 197 192 188 186 186 187 189 190 191
209 209 211 213 212 210 209 209 207 203 201 203 204 204 204 203 201 198 198 199 201 206 212 216 218 219 219 217 214 212 210 207 204 200 195 190 188 189 189 189 190 190
209 209 210 213 215 213 211 211 210 206 203 203 204 205 205 204 201 199 198 198 200 204 208 212 216 219 221 220 218 216 214 212 209 206 201 197 195 195 194 194 194 193
211 210 210 213 216 217 215 212 211 210 207 204 204 204 205 204 202 200 199 201 203 205 207 210 212 215 219 221 220 219 217 216 216 213 209 204 203 203 203 202 203 202
214 212 212 213 216 218 218 216 213 212 211 209 206 205 205 204 203 202 201 203 206 208 209 211 211 213 216 219 220 220 220 220 220 220 217 213 212 212 212 212 212 213
218 216 215 215 216 219 220 219 217 215 214 213 210 208 206 205 204 203 203 205 207 209 211 212 213 215 217 218 219 220 221 222 222 224 223 221 220 220 221 220 220 222
222 220 218 218 218 220 221 222 221 220 218 216 214 212 210 208 207 206 206 207 208 210 211 212 213 216 219 220 221 222 224 225 225 225 225 225 225 226 227 228 227 228
227 226 224 222 221 221 222 223 224 224 222 220 218 216 214 212 210 209 208 208 210 212 213 213 213 216 220 222 223 224 226 228 228 228 227 227 227 228 230 232 233 233
230 229 228 227 225 224 223 224 226 227 226 225 223 221 219 217 215 213 211 211 212 214 215 214 215 219 221 222 223 224 226 228 229 229 229 229 228 228 230 233 235 237
230 230 230 230 229 229 227 226 226 228 229 229 228 227 225 223 221 219 217 215 215 216 217 216 217 221 224 225 225 225 226 226 228 228 228 229 229 229 230 233 236 238
231 231 231 231 231 232 231 229 228 228 229 230 231 230 229 228 226 225 224 222 220 220 220 219 219 222 226 227 228 228 228 228 228 228 228 228 229 229 230 233 235 238
233 232 232 232 233 233 234 233 232 230 230 231 232 232 232 231 230 229 228 227 226 225 224 223 223 225 227 229 231 232 233 232 231 230 230 230 230 230 231 233 235 238
236 234 234 234 235 235 236 236 235 234 233 233 233 233 234 233 233 232 231 232 231 231 230 229 228 230 231 232 234 236 237 238 236 236 235 234 233 234 233 234 235 238
238 237 236 236 237 238 238 238 238 238 237 236 235 235 235 235 236 235 235 235 235 234 234 234 234 235 236 237 238 239 241 242 242 242 241 239 238 238 237 237 237 238
238 239 238 238 238 239 239 240 240 239 239 238 238 237 237 237 237 237 237 237 237 237 237 238 239 240 241 242 243 244 245 246 246 246 245 244 243 243 242 242 241 241
236 238 239 239 239 239 239 240 240 240 239 239 239 238 238 238 237 238 239 239 239 240 240 240 241 243 245 246 246 248 249 250 250 249 248 247 246 246 247 246 245 245
236 238 240 240 240 240 239 239 240 241 240 240 239 238 238 238 238 238 239 240 241 242 243 242 243 245 247 248 249 250 251 252 252 252 251 250 248 248 248 248 247 247
236 237 239 240 241 241 240 239 239 240 240 240 240 239 239 238 238 239 239 240 241 242 243 244 245 247 249 250 251 252 253 253 254 255 254 253 251 250 250 250 249 249